Regional Weather Roundup
Issued by NWS

Current Version | Previous Version | Text Only | Print | Product List | Glossary On
Versions: 1 2 3 4 5 6 7 8 9 10 11 12 13 14 15 16 17 18 19 20 21 22 23 24 25 26 27 28 29 30 31 32 33 34 35 36 37 38 39 40 41 42 43 44 45 46 47 48 49 50
000
ASUS44 KLUB 010210
RWRLUB
WEST TEXAS WEATHER ROUNDUP
NATIONAL WEATHER SERVICE LUBBOCK TX
900 PM CDT THU JUN 30 2022

NOTE: "FAIR" INDICATES FEW OR NO CLOUDS BELOW 12,000 FEET WITH NO
SIGNIFICANT WEATHER AND/OR OBSTRUCTIONS TO VISIBILITY.

TXZ004-006>008-010-012-014-016-OKZ002-010300-
TEXAS PANHANDLE/OKLAHOMA PANHANDLE

CITY           SKY/WX    TMP DP  RH WIND       PRES   REMARKS
AMARILLO       CLEAR     91  44  19 S15       29.96R
BORGER         CLEAR     95  47  19 SE10G20   29.91R
CANADIAN       CLEAR     87  52  29 SE9       29.90R
DALHART        CLEAR     87  41  19 S12       29.95R
DUMAS          CLEAR     89  46  22 SE10      29.95R
GUYMON         PTCLDY    92  48  22 S10       29.87R
HEREFORD       CLEAR     90  44  20 S9        29.99R
PAMPA          CLEAR     87  53  31 SE13      29.96S
PERRYTON       CLEAR     88  40  18 SE17      29.90S
$$

TXZ026-029-035-045-048-010300-
SOUTHERN PANHANDLE/SOUTH PLAINS/ROLLING PLAINS

CITY           SKY/WX    TMP DP  RH WIND       PRES   REMARKS
CHILDRESS      CLEAR     92  52  25 SE14G23   29.91R
SEMINOLE       CLEAR     90  48  23 SE9       30.03S
LUBBOCK        PTCLDY    91  43  18 S13       29.98R
PLAINVIEW      CLEAR     86  43  22 S7        29.99R
SNYDER         CLEAR     92  47  21 SE7       29.96R
$$

TXZ052-054-060>062-072-078-127-140-154-169-010300-
PERMIAN BASIN/CONCHO VALLEY/BIG COUNTRY/EDWARDS PLATEAU

CITY           SKY/WX    TMP DP  RH WIND       PRES   REMARKS
ABILENE        CLEAR     92  53  26 SE10      29.93S
BIG SPRING     CLEAR     93  47  20 S7        29.96R
BROWNWOOD      CLEAR     90  55  31 SE7       29.94S
JUNCTION       CLOUDY    93  57  29 SE10      29.95R
MIDLAND        CLEAR     90  45  21 S6        29.97S
ODESSA         CLEAR     91  47  21 E7        29.99R
SAN ANGELO     PTCLDY    92  52  25 SE7       29.93S
SONORA         PTCLDY    88  55  33 CALM      30.00S
SWEETWATER     CLEAR     89  46  22 S7        29.98S
WINK           CLEAR     93  50  23 SE12      29.94R
$$

TXZ055-058-074-075-080-082-010300-
FAR WEST/SOUTHWEST MOUNTAINS/TRANS PECOS

CITY           SKY/WX    TMP DP  RH WIND       PRES   REMARKS
ALPINE         PTCLDY    81  51  35 SW16      30.15R
DRYDEN           N/A     93  54  26 SE14      29.94R
EL PASO        MOCLDY    92  45  19 SE12      29.99R
FORT STOCKTON  CLEAR     92  51  24 SE12      29.96R
GUADALUPE PASS PTCLDY    81  50  33 N7        30.16R
MARFA          PTCLDY    75  54  47 S8        30.15R
PECOS          CLEAR     94  50  21 E8        29.93R
PRESIDIO       FAIR      88  60  38 N17G28    29.97R
$$

TXZ014-016-019-021>030-083-010300
TEXAS TECH WEST TEXAS MESONET/TEXAS PANHANDLE/NORTHERN SOUTH PLAINS

CITY           SKY/WX    TMP DP  RH WIND       PRES   REMARKS
ABERNATHY 5ENE   N/A     87  44  22 S8        30.00R
AMARILLO 9NNE    N/A     92  47  21 S16       29.94R
AMARILLO 7SSE    N/A     89  46  22 S12       29.99R
AMHERST 1NE      N/A     88  44  21 S12       30.00R
BOOTLEG 11WNW    N/A     85  49  28 S10       30.05R
CANADIAN 6E      N/A     85  55  35 SE12      29.90R
CAPROCK CYN SP   N/A     91  49  23 SE12      29.94R
CHILDRESS 2NNE   N/A     90  55  30 SE17      29.91S
CLARENDON 2WSW   N/A     89  47  23 SE13      29.95R
CLAUDE 12SW      N/A     92  47  21 S10       29.98R
DIMMITT 2NE      N/A     89  44  21 SE13      30.01R
FLOYDADA 2NNE    N/A     90  46  21 S9        29.99S
FRIONA 2NE       N/A     88  46  23 S12       30.01R
GOODLETT 3W      N/A     91  57  30 SE16      29.89S
HART 3N          N/A     87  46  24 S7        30.01R
HEREFORD 2NW     N/A     89  46  22 S12       30.00R
MCLEAN 1E        N/A     87  52  30 SE14      29.95R
MEMPHIS 1NE      N/A     91  51  25 E14       29.91S
MULESHOE 2SSW    N/A     87  43  21 S10       30.00S
OLTON 6S         N/A     86  47  25 S10       29.99R
PALO DURO SP     N/A     92  46  20 S14       29.99R
PAMPA 2E         N/A     85  51  30 SE16      29.97R
PLAINVIEW 1S     N/A     89  44  20 S7        29.99S
SILVERTON 7ESE   N/A     85  44  23 S9        29.98R
TULIA 2ENE       N/A     89  45  21 S12       29.99S
TURKEY 2WSW      N/A     92  50  23 SE14      29.92R
UMBARGER 3NNE    N/A     88  47  23 S14       30.00R
$$

TXZ033>036-039>041-045>048-010300
TEXAS TECH WEST TEXAS MESONET/SOUTH PLAINS

CITY           SKY/WX    TMP DP  RH WIND       PRES   REMARKS
AIKEN 3WSW       N/A     87  47  24 S9        30.00S
ANDREWS 2NE      N/A     89  47  22 SE7       30.00R
ANTON 6SSW       N/A     90  47  22 S15       29.99R
BROWNFIELD 2S    N/A     89  44  21 S13       30.00R
DENVR CTY 7WNW   N/A     88  47  24 S8        30.01R
GAIL 2ESE        N/A     91  49  23 SE8       29.96R
LAMESA 2SE       N/A     88  47  24 S7        29.99S
LUBBOCK 3WNW     N/A     90  44  20 S8        29.99R
MORTON 1ENE      N/A     89  41  18 S8        30.01S
ODONNELL 1N      N/A     90  44  19 S8        30.00R
PLAINS 3N        N/A     88  49  26 SE12      30.02R
RALLS 1SE        N/A     90  47  23 S10       29.99R
REESE CENTER     N/A     89  46  22 S14       30.00R
SEAGRAVES 1SW    N/A     89  49  25 SE8       30.00S
SEMINOLE 2NNE    N/A     90  48  23 SE13      30.00S
SLATON 2NE       N/A     90  45  21 S12       29.99R
SNYDER 3E        N/A     88  54  31 SE7       29.95S
SUNDOWN 8SW      N/A     89  47  24 SE13      30.01R
TAHOKA 3NNE      N/A     89  46  22 S9        29.99S
WOLFFORTH 6SSW   N/A     89  46  22 S12       30.00R
$$

TXZ031-032-036>038-042>044-010300-
TEXAS TECH WEST TEXAS MESONET/ROLLING PLAINS

CITY           SKY/WX    TMP DP  RH WIND       PRES   REMARKS
ASPERMONT 3NE    N/A     93  50  23 E7        29.91R
FLUVANNA 3WNW    N/A     91  48  22 SE9       29.97S
GRAHAM 5SSW      N/A     91  46  20 S9        29.98R
GUTHRIE 10WSW    N/A     91  49  23 SE8       29.92R
HASKELL 1NW      N/A     91  56  29 SE7       29.91R
JAYTON 1SSE      N/A     89  48  24 SE6       29.92S
KNOX CITY 3NW    N/A     91  57  31 SE10      29.90R
LK A HENRY 1NW   N/A     92  51  24 SE6       29.94R
NORTHFIELD 1S    N/A     93  50  23 S10       29.90R
ODELL 4ENE       N/A     91  58  33 SE13      29.91R
PADUCAH 10SW     N/A     92  49  22 SE10      29.93R
POST 1NE         N/A     92  48  22 S10       29.95S
RRING SPRGS 3N   N/A     91  49  23 SE13      29.95S
SEYMOUR 3NW      N/A     91  55  30 SE13      29.90S
SPUR 1W          N/A     92  49  22 S7        29.93R
WEINERT 2NNE     N/A     93  54  27 SE10      29.91S
WHITE RVR 6NE    N/A     92  48  22 S10       29.95S
$$

TXZ052-054-060>062-072-078-127-140-154-169-010300-
TEXAS TECH WEST TEXAS MESONET/PERMIAN BASIN/
CONCHO VALLEY/BIG COUNTRY/EDWARDS PLATEAU

CITY           SKY/WX    TMP DP  RH WIND       PRES   REMARKS
COYANOSA 2N      N/A     94  51  23 SE10      29.94R
JUNCTION 1SSW    N/A     92  58  31 SE7       29.96R
MERTZON 3NNE     N/A     89  56  32 S5        29.97S
SAN ANGELO 7NW   N/A     91  54  28 SE8       29.95R
STRLNG CT 4WSW   N/A     91  53  27 SE7       29.97S
ST LAWRNCE 5SW   N/A     90  55  30 SE15      29.99R
SWEETWATR 11SW   N/A     86  51  30 SE8       29.98S
WALL 1E          N/A     90  58  33 SE8       29.96R
$$

TXZ055-058-074-075-080-082-010300-
TEXAS TECH WEST TEXAS MESONET/FAR WEST/SOUTHWEST MOUNTAINS/TRANS PECOS

CITY           SKY/WX    TMP DP  RH WIND       PRES   REMARKS
PRSMN GAP BBNP   N/A     93  52  25 E7        29.96R
GUADLPE MTN NP   N/A     79  47  32 NW12      30.17R
$$



USA.gov is the U.S. government's official web portal to all federal, state and local government web resources and services.